Time,TemperatureF,DewpointF,PressureIn,WindDirection,WindDirectionDegrees,WindSpeedMPH,WindSpeedGustMPH,Humidity,HourlyPrecipIn,Conditions,Clouds,dailyrainin,SoftwareType,DateUTC
2013-11-07 00:12:00,41.7,38.0,30.07,West,262,4.0,9.0,86,0.00,,,0.00,weatherlink.com 1.10,2013-11-07 05:12:00,
2013-11-07 00:27:00,41.6,37.0,30.07,West,273,2.0,6.0,85,0.00,,,0.00,weatherlink.com 1.10,2013-11-07 05:27:00,
2013-11-07 00:42:00,41.6,37.0,30.09,WSW,252,3.0,6.0,84,0.00,,,0.00,weatherlink.com 1.10,2013-11-07 05:42:00,
2013-11-07 00:57:00,41.5,37.0,30.09,West,272,3.0,7.0,84,0.00,,,0.00,weatherlink.com 1.10,2013-11-07 05:57:00,
2013-11-07 01:27:00,41.5,36.0,30.09,NNW,328,9.0,13.0,81,0.00,,,0.00,weatherlink.com 1.10,2013-11-07 06:27:00,
2013-11-07 01:42:00,41.5,35.0,30.10,West,269,9.0,14.0,79,0.00,,,0.00,weatherlink.com 1.10,2013-11-07 06:42:00,
2013-11-07 01:57:00,41.1,34.0,30.10,West,270,7.0,12.0,77,0.00,,,0.00,weatherlink.com 1.10,2013-11-07 06:57:00,
2013-11-07 02:12:00,40.8,34.0,30.11,West,277,4.0,9.0,77,0.00,,,0.00,weatherlink.com 1.10,2013-11-07 07:12:00,
2013-11-07 02:27:00,40.3,33.0,30.11,WNW,287,5.0,13.0,74,0.00,,,0.00,weatherlink.com 1.10,2013-11-07 07:27:00,
2013-11-07 02:42:00,39.5,32.0,30.11,WNW,291,6.0,12.0,74,0.00,,,0.00,weatherlink.com 1.10,2013-11-07 07:42:00,
2013-11-07 02:57:00,38.5,31.0,30.11,WNW,288,3.0,13.0,75,0.00,,,0.00,weatherlink.com 1.10,2013-11-07 07:57:00,
2013-11-07 03:12:00,37.7,31.0,30.11,WNW,289,3.0,9.0,76,0.00,,,0.00,weatherlink.com 1.10,2013-11-07 08:12:00,
2013-11-07 03:27:00,37.1,31.0,30.11,West,267,4.0,10.0,78,0.00,,,0.00,weatherlink.com 1.10,2013-11-07 08:27:00,
2013-11-07 03:42:00,36.6,30.0,30.12,West,269,10.0,10.0,78,0.00,,,0.00,weatherlink.com 1.10,2013-11-07 08:42:00,
2013-11-07 03:57:00,36.3,30.0,30.12,WNW,291,5.0,10.0,79,0.00,,,0.00,weatherlink.com 1.10,2013-11-07 08:57:00,
2013-11-07 04:13:00,36.0,30.0,30.13,WNW,293,4.0,9.0,79,0.00,,,0.00,weatherlink.com 1.10,2013-11-07 09:13:00,
2013-11-07 04:28:00,35.7,30.0,30.14,WSW,246,9.0,9.0,80,0.00,,,0.00,weatherlink.com 1.10,2013-11-07 09:28:00,
2013-11-07 04:43:00,35.5,30.0,30.14,WSW,250,7.0,8.0,80,0.00,,,0.00,weatherlink.com 1.10,2013-11-07 09:43:00,
2013-11-07 04:58:00,35.1,30.0,30.14,SW,232,2.0,6.0,81,0.00,,,0.00,weatherlink.com 1.10,2013-11-07 09:58:00,
2013-11-07 05:13:00,34.7,29.0,30.15,West,272,0.0,3.0,81,0.00,,,0.00,weatherlink.com 1.10,2013-11-07 10:13:00,
2013-11-07 05:28:00,34.2,29.0,30.16,West,262,2.0,3.0,82,0.00,,,0.00,weatherlink.com 1.10,2013-11-07 10:28:00,
2013-11-07 05:43:00,33.9,29.0,30.17,West,277,1.0,3.0,83,0.00,,,0.00,weatherlink.com 1.10,2013-11-07 10:43:00,
2013-11-07 05:58:00,33.3,29.0,30.17,SW,235,0.0,3.0,84,0.00,,,0.00,weatherlink.com 1.10,2013-11-07 10:58:00,
2013-11-07 06:13:00,32.7,29.0,30.18,WSW,248,1.0,2.0,85,0.00,,,0.00,weatherlink.com 1.10,2013-11-07 11:13:00,
2013-11-07 06:28:00,32.5,29.0,30.18,SW,235,0.0,3.0,85,0.00,,,0.00,weatherlink.com 1.10,2013-11-07 11:28:00,
2013-11-07 06:43:00,32.2,29.0,30.18,WSW,246,1.0,3.0,86,0.00,,,0.00,weatherlink.com 1.10,2013-11-07 11:43:00,
2013-11-07 06:58:00,32.0,28.0,30.18,WSW,254,0.0,2.0,86,0.00,,,0.00,weatherlink.com 1.10,2013-11-07 11:58:00,
2013-11-07 07:13:00,31.8,28.0,30.19,West,266,1.0,3.0,87,0.00,,,0.00,weatherlink.com 1.10,2013-11-07 12:13:00,
2013-11-07 07:28:00,31.9,28.0,30.20,SW,229,1.0,4.0,86,0.00,,,0.00,weatherlink.com 1.10,2013-11-07 12:28:00,
2013-11-07 07:43:00,32.0,28.0,30.20,WSW,250,1.0,4.0,86,0.00,,,0.00,weatherlink.com 1.10,2013-11-07 12:43:00,
2013-11-07 07:58:00,32.0,28.0,30.20,SW,231,2.0,3.0,86,0.00,,,0.00,weatherlink.com 1.10,2013-11-07 12:58:00,
2013-11-07 08:13:00,32.5,29.0,30.21,West,280,3.0,4.0,85,0.00,,,0.00,weatherlink.com 1.10,2013-11-07 13:13:00,
2013-11-07 08:28:00,33.2,29.0,30.22,West,259,2.0,6.0,85,0.00,,,0.00,weatherlink.com 1.10,2013-11-07 13:28:00,
2013-11-07 08:43:00,34.0,30.0,30.22,WSW,243,3.0,7.0,84,0.00,,,0.00,weatherlink.com 1.10,2013-11-07 13:43:00,
2013-11-07 08:58:00,34.9,31.0,30.22,WSW,257,2.0,5.0,84,0.00,,,0.00,weatherlink.com 1.10,2013-11-07 13:58:00,
2013-11-07 09:13:00,36.1,31.0,30.22,WSW,249,4.0,7.0,82,0.00,,,0.00,weatherlink.com 1.10,2013-11-07 14:13:00,
2013-11-07 09:28:00,37.1,31.0,30.22,WSW,255,3.0,7.0,80,0.00,,,0.00,weatherlink.com 1.10,2013-11-07 14:28:00,
2013-11-07 09:43:00,38.0,32.0,30.23,SW,219,4.0,9.0,79,0.00,,,0.00,weatherlink.com 1.10,2013-11-07 14:43:00,
2013-11-07 09:58:00,38.8,32.0,30.23,WSW,250,6.0,11.0,76,0.00,,,0.00,weatherlink.com 1.10,2013-11-07 14:58:00,
2013-11-07 10:13:00,39.3,33.0,30.23,WSW,250,6.0,9.0,77,0.00,,,0.00,weatherlink.com 1.10,2013-11-07 15:13:00,
2013-11-07 10:28:00,40.3,34.0,30.23,WSW,240,8.0,11.0,77,0.00,,,0.00,weatherlink.com 1.10,2013-11-07 15:28:00,
2013-11-07 10:43:00,40.7,33.0,30.24,WSW,253,5.0,14.0,73,0.00,,,0.00,weatherlink.com 1.10,2013-11-07 15:43:00,
2013-11-07 10:58:00,41.1,33.0,30.24,West,262,8.0,12.0,72,0.00,,,0.00,weatherlink.com 1.10,2013-11-07 15:58:00,
2013-11-07 11:13:00,41.6,33.0,30.24,West,276,6.0,14.0,72,0.00,,,0.00,weatherlink.com 1.10,2013-11-07 16:13:00,
2013-11-07 11:28:00,41.7,32.0,30.24,WNW,285,5.0,14.0,68,0.00,,,0.00,weatherlink.com 1.10,2013-11-07 16:28:00,
2013-11-07 11:43:00,41.7,32.0,30.23,SW,228,11.0,14.0,69,0.00,,,0.00,weatherlink.com 1.10,2013-11-07 16:43:00,
2013-11-07 11:58:00,42.5,31.0,30.23,West,267,9.0,15.0,64,0.00,,,0.00,weatherlink.com 1.10,2013-11-07 16:58:00,
2013-11-07 12:14:00,42.7,30.0,30.23,SW,233,8.0,12.0,62,0.00,,,0.00,weatherlink.com 1.10,2013-11-07 17:14:00,
2013-11-07 12:29:00,43.2,29.0,30.22,West,264,9.0,14.0,58,0.00,,,0.00,weatherlink.com 1.10,2013-11-07 17:29:00,
2013-11-07 12:44:00,43.4,28.0,30.21,West,268,11.0,17.0,55,0.00,,,0.00,weatherlink.com 1.10,2013-11-07 17:44:00,
2013-11-07 12:59:00,43.5,28.0,30.20,West,263,11.0,19.0,54,0.00,,,0.00,weatherlink.com 1.10,2013-11-07 17:59:00,
2013-11-07 13:14:00,44.0,28.0,30.20,West,262,7.0,16.0,53,0.00,,,0.00,weatherlink.com 1.10,2013-11-07 18:14:00,
2013-11-07 13:29:00,44.1,26.0,30.19,West,269,8.0,17.0,49,0.00,,,0.00,weatherlink.com 1.10,2013-11-07 18:29:00,
2013-11-07 13:44:00,44.3,26.0,30.19,WSW,257,15.0,19.0,48,0.00,,,0.00,weatherlink.com 1.10,2013-11-07 18:44:00,
2013-11-07 13:59:00,44.5,27.0,30.19,West,271,12.0,19.0,51,0.00,,,0.00,weatherlink.com 1.10,2013-11-07 18:59:00,
2013-11-07 14:14:00,44.9,27.0,30.19,SW,218,6.0,16.0,50,0.00,,,0.00,weatherlink.com 1.10,2013-11-07 19:14:00,
2013-11-07 14:29:00,44.6,28.0,30.18,West,278,17.0,20.0,53,0.00,,,0.00,weatherlink.com 1.10,2013-11-07 19:29:00,
2013-11-07 14:44:00,44.9,28.0,30.18,West,266,7.0,15.0,51,0.00,,,0.00,weatherlink.com 1.10,2013-11-07 19:44:00,
2013-11-07 14:59:00,45.3,28.0,30.18,SW,219,11.0,15.0,52,0.00,,,0.00,weatherlink.com 1.10,2013-11-07 19:59:00,
2013-11-07 15:14:00,45.1,28.0,30.18,West,277,13.0,20.0,52,0.00,,,0.00,weatherlink.com 1.10,2013-11-07 20:14:00,
2013-11-07 15:29:00,44.9,29.0,30.17,West,280,15.0,15.0,53,0.00,,,0.00,weatherlink.com 1.10,2013-11-07 20:29:00,
2013-11-07 15:44:00,44.1,29.0,30.17,West,279,10.0,12.0,55,0.00,,,0.00,weatherlink.com 1.10,2013-11-07 20:44:00,
2013-11-07 15:59:00,44.2,29.0,30.17,WNW,285,4.0,10.0,56,0.00,,,0.00,weatherlink.com 1.10,2013-11-07 20:59:00,
2013-11-07 16:14:00,44.0,30.0,30.17,West,260,5.0,11.0,58,0.00,,,0.00,weatherlink.com 1.10,2013-11-07 21:14:00,
2013-11-07 16:29:00,43.8,30.0,30.17,SW,229,6.0,14.0,59,0.00,,,0.00,weatherlink.com 1.10,2013-11-07 21:29:00,
2013-11-07 16:44:00,43.5,31.0,30.17,WSW,245,5.0,10.0,61,0.00,,,0.00,weatherlink.com 1.10,2013-11-07 21:44:00,
2013-11-07 16:59:00,43.3,31.0,30.17,SW,218,7.0,13.0,62,0.00,,,0.00,weatherlink.com 1.10,2013-11-07 21:59:00,
2013-11-07 17:14:00,43.0,31.0,30.17,WSW,253,9.0,13.0,64,0.00,,,0.00,weatherlink.com 1.10,2013-11-07 22:14:00,
2013-11-07 17:29:00,42.7,32.0,30.18,WSW,243,6.0,12.0,67,0.00,,,0.00,weatherlink.com 1.10,2013-11-07 22:29:00,
2013-11-07 17:44:00,42.2,33.0,30.18,West,276,10.0,15.0,70,0.00,,,0.00,weatherlink.com 1.10,2013-11-07 22:44:00,
2013-11-07 17:59:00,41.6,33.0,30.18,West,277,6.0,11.0,72,0.00,,,0.00,weatherlink.com 1.10,2013-11-07 22:59:00,
2013-11-07 18:14:00,41.3,33.0,30.18,West,264,4.0,11.0,73,0.00,,,0.00,weatherlink.com 1.10,2013-11-07 23:14:00,
2013-11-07 18:29:00,41.2,34.0,30.18,WSW,239,5.0,10.0,74,0.00,,,0.00,weatherlink.com 1.10,2013-11-07 23:29:00,
2013-11-07 18:44:00,41.1,33.0,30.19,WSW,255,6.0,11.0,74,0.00,,,0.00,weatherlink.com 1.10,2013-11-07 23:44:00,
2013-11-07 18:59:00,41.1,33.0,30.19,WNW,287,3.0,8.0,74,0.00,,,0.00,weatherlink.com 1.10,2013-11-07 23:59:00,
2013-11-07 19:14:00,40.9,34.0,30.19,WSW,257,2.0,8.0,75,0.00,,,0.00,weatherlink.com 1.10,2013-11-08 00:14:00,
2013-11-07 19:29:00,40.8,34.0,30.18,WSW,238,5.0,6.0,76,0.00,,,0.00,weatherlink.com 1.10,2013-11-08 00:29:00,
2013-11-07 19:59:00,40.5,34.0,30.18,WSW,253,4.0,7.0,77,0.00,,,0.00,weatherlink.com 1.10,2013-11-08 00:59:00,
2013-11-07 20:14:00,40.3,34.0,30.19,West,259,4.0,9.0,77,0.00,,,0.00,weatherlink.com 1.10,2013-11-08 01:14:00,
2013-11-07 20:29:00,40.1,34.0,30.19,WSW,240,5.0,9.0,79,0.00,,,0.00,weatherlink.com 1.10,2013-11-08 01:29:00,
2013-11-07 20:59:00,39.7,34.0,30.19,West,260,3.0,9.0,80,0.00,,,0.00,weatherlink.com 1.10,2013-11-08 01:59:00,
2013-11-07 21:14:00,39.4,34.0,30.20,West,260,5.0,8.0,81,0.00,,,0.00,weatherlink.com 1.10,2013-11-08 02:14:00,
2013-11-07 21:29:00,39.1,33.0,30.20,WNW,290,4.0,13.0,78,0.00,,,0.00,weatherlink.com 1.10,2013-11-08 02:29:00,
2013-11-07 21:44:00,38.4,32.0,30.21,West,278,4.0,12.0,79,0.00,,,0.00,weatherlink.com 1.10,2013-11-08 02:44:00,
2013-11-07 21:59:00,37.7,32.0,30.21,WSW,255,5.0,8.0,80,0.00,,,0.00,weatherlink.com 1.10,2013-11-08 02:59:00,
2013-11-07 22:14:00,36.9,32.0,30.21,West,271,6.0,7.0,81,0.00,,,0.00,weatherlink.com 1.10,2013-11-08 03:14:00,
2013-11-07 22:29:00,36.6,32.0,30.22,WSW,250,4.0,9.0,82,0.00,,,0.00,weatherlink.com 1.10,2013-11-08 03:29:00,
2013-11-07 22:44:00,36.0,32.0,30.22,West,273,6.0,8.0,84,0.00,,,0.00,weatherlink.com 1.10,2013-11-08 03:44:00,
2013-11-07 22:59:00,35.7,32.0,30.23,West,262,4.0,10.0,85,0.00,,,0.00,weatherlink.com 1.10,2013-11-08 03:59:00,
2013-11-07 23:14:00,35.1,31.0,30.23,WSW,252,3.0,9.0,86,0.00,,,0.00,weatherlink.com 1.10,2013-11-08 04:14:00,
2013-11-07 23:29:00,34.6,31.0,30.23,West,265,4.0,8.0,87,0.00,,,0.00,weatherlink.com 1.10,2013-11-08 04:29:00,
2013-11-07 23:45:00,34.3,31.0,30.23,West,262,5.0,8.0,87,0.00,,,0.00,weatherlink.com 1.10,2013-11-08 04:45:00,